This is the latest recevied weather packets stored in our database for station/object KJ7HSW. If no packets are shown the sender has not sent any weather packets the latest 10 day(s).
| Time | Temp. | Humidity | Pressure | Rain* | Wind** | Luminosity | Snow |
|---|---|---|---|---|---|---|---|
| 1778116359 | 14.44° C | 77% | 1019.6 hPa | 0 mm | - | 99 W/m² | - |
| 1778116059 | 14.44° C | 78% | 1019.6 hPa | 0 mm | - | 114 W/m² | - |
| 1778115755 | 14.44° C | 78% | 1019.5 hPa | 0 mm | - | 132 W/m² | - |
| 1778115453 | 13.89° C | 78% | 1019.6 hPa | 0 mm | - | 123 W/m² | - |
| 1778115149 | 13.89° C | 77% | 1019.6 hPa | 0 mm | - | 122 W/m² | - |
| 1778114845 | 13.89° C | 78% | 1019.6 hPa | 0 mm | - | 121 W/m² | - |
| 1778114544 | 13.89° C | 78% | 1019.7 hPa | 0 mm | - | 99 W/m² | - |
| 1778114239 | 13.89° C | 79% | 1019.8 hPa | 0 mm | - | 101 W/m² | - |
| 1778113935 | 13.33° C | 82% | 1019.7 hPa | 0 mm | - | 148 W/m² | - |
| 1778113631 | 12.78° C | 87% | 1019.7 hPa | 0 mm | - | 120 W/m² | - |
| 1778113327 | 12.78° C | 88% | 1019.7 hPa | 0 mm | - | 88 W/m² | - |
| 1778113024 | 12.78° C | 87% | 1019.7 hPa | 0 mm | - | 108 W/m² | - |
| 1778112721 | 12.78° C | 88% | 1019.5 hPa | 0 mm | - | 81 W/m² | - |
| 1778112417 | 12.78° C | 88% | 1019.6 hPa | 0 mm | - | 90 W/m² | - |
| 1778112113 | 12.78° C | 88% | 1019.6 hPa | 0 mm | - | 96 W/m² | - |
| 1778111810 | 12.78° C | 88% | 1019.7 hPa | 0 mm | - | 99 W/m² | - |
| 1778111505 | 12.78° C | 88% | 1019.5 hPa | 0 mm | - | 75 W/m² | - |
| 1778111203 | 12.78° C | 88% | 1019.7 hPa | 0 mm | - | 58 W/m² | - |
| 1778110900 | 12.78° C | 88% | 1019.5 hPa | 0 mm | - | 64 W/m² | - |
| 1778110597 | 12.78° C | 88% | 1019.7 hPa | 0 mm | - | 71 W/m² | - |
| 1778110294 | 12.78° C | 88% | 1019.4 hPa | 0 mm | - | 86 W/m² | - |
| 1778109990 | 12.78° C | 88% | 1019.6 hPa | 0 mm | - | 120 W/m² | - |
| 1778109686 | 12.78° C | 88% | 1019.8 hPa | 0 mm | - | 97 W/m² | - |
| 1778109383 | 12.78° C | 89% | 1019.7 hPa | 0 mm | - | 129 W/m² | - |
| 1778109082 | 12.22° C | 90% | 1019.7 hPa | 0 mm | - | 103 W/m² | - |
* Rain latest hour (hover to see other rain measurements)
** Current wind speed in m/s (hover to see current wind gust speed)